This demonstration page uses our WeatherBlox Daily Observations layout. Learn more.

Left ArrowRight Arrow

53.62937, 11.41316

Hourly Observations for June 26, 2017

Temp ( °F °C ) Dew Point ( °F °C ) Humidity (%) Winds ( mph kmh ) Pressure ( in mb ) Visibility ( mi km ) Precip ( " mm )
6:20 am 06:20 Mostly Cloudy with Light Rain 55 13 54 12 94 94 WSW 8 13 29.77 1008 30 48 N/A
6:50 am 06:50 Mostly Cloudy 55 13 54 12 94 94 SW 8 13 29.77 1008 30 48 N/A
7:20 am 07:20 Mostly Cloudy 55 13 54 12 94 94 WSW 9 15 29.80 1009 30 48 N/A
7:50 am 07:50 Partly Cloudy 57 14 55 13 94 94 W 10 17 29.80 1009 30 48 N/A
8:20 am 08:20 Partly Cloudy 59 15 55 13 88 88 W 13 20 29.80 1009 30 48 N/A
8:50 am 08:50 Partly Cloudy 59 15 52 11 77 77 W 13 20 29.80 1009 30 48 N/A
9:20 am 09:20 Partly Cloudy 61 16 52 11 72 72 W 10 17 29.80 1009 30 48 N/A
9:50 am 09:50 Partly Cloudy 61 16 50 10 68 68 W 15 24 29.83 1010 30 48 N/A
10:20 am 10:20 Partly Cloudy 63 17 50 10 64 64 W 15 24 29.83 1010 30 48 N/A
10:50 am 10:50 Partly Cloudy 64 18 52 11 64 64 W 14 22 29.83 1010 30 48 N/A
11:20 am 11:20 Mostly Cloudy 64 18 52 11 64 64 W 17 28 29.83 1010 30 48 N/A
11:50 am 11:50 Partly Cloudy 64 18 46 8 52 52 W 15 24 29.83 1010 30 48 N/A
12:20 pm 12:20 Partly Cloudy 64 18 50 10 60 60 W 13 20 29.83 1010 30 48 N/A
12:50 pm 12:50 Partly Cloudy 64 18 48 9 56 56 WSW 15 24 29.83 1010 30 48 N/A
1:20 pm 13:20 Partly Cloudy 66 19 48 9 52 52 WSW 16 26 29.83 1010 30 48 N/A
1:50 pm 13:50 Mostly Cloudy 64 18 50 10 60 60 WNW 12 19 29.85 1011 30 48 N/A
2:20 pm 14:20 Mostly Cloudy 66 19 52 11 60 60 W 12 19 29.85 1011 30 48 N/A
2:50 pm 14:50 Mostly Cloudy 64 18 50 10 60 60 WSW 13 20 29.85 1011 30 48 N/A
3:20 pm 15:20 Partly Cloudy 68 20 52 11 56 56 WSW 15 24 29.85 1011 30 48 N/A
3:50 pm 15:50 Mostly Cloudy 64 18 50 10 60 60 WNW 10 17 29.85 1011 30 48 N/A
4:20 pm 16:20 Partly Cloudy 64 18 48 9 56 56 W 17 28 29.85 1011 30 48 N/A
4:50 pm 16:50 Mostly Sunny 68 20 48 9 49 49 W 16 26 29.85 1011 7 11 N/A
5:20 pm 17:20 Mostly Sunny 68 20 48 9 49 49 WNW 12 19 29.85 1011 7 11 N/A
5:50 pm 17:50 Mostly Sunny 68 20 46 8 46 46 W 15 24 29.85 1011 7 11 N/A

Powered by AerisWeather